This demonstration page uses our WeatherBlox Daily Observations layout. Learn more.

Left ArrowRight Arrow

38.83388, -104.82136

Hourly Observations for November 22, 2019

Temp ( °F °C ) Dew Point ( °F °C ) Humidity (%) Winds ( mph kmh ) Pressure ( in mb ) Visibility ( mi km ) Precip ( " mm )
12:31 am 00:31 undefined N/A N/A N/A Calm N/A N/A 0.00 0.00
12:32 am 00:32 Mostly Clear with Snow 21 -6 21 -6 100 100 Calm 29.87 1011 0 0 0.00 0.00
12:37 am 00:37 Mostly Cloudy with Heavy Snow 21 -6 21 -6 100 100 Calm 29.87 1011 0 0 0.00 0.00
12:58 am 00:58 Cloudy with Heavy Snow 22 -5.7 21 -6.2 96 96 Calm 29.87 1011 0 0 0.00 0.00
1:13 am 01:13 Cloudy with Snow 21 -6 21 -6 100 100 Calm 29.86 1011 3 5 0.00 0.00
1:18 am 01:18 Cloudy with Snow 21 -6 21 -6 100 100 Calm 29.86 1011 1 1 0.00 0.00
1:48 am 01:48 Cloudy with Snow 21 -6 21 -6 100 100 Calm 29.86 1011 1 1 0.00 0.00
1:58 am 01:58 Cloudy with Snow 21 -6 20 -6.6 96 96 Calm 29.86 1011 5 8 0.00 0.00
2:13 am 02:13 Cloudy with Light Snow 21 -6 21 -6 100 100 Calm 29.86 1011 1 1 0.00 0.00
2:18 am 02:18 Cloudy with Light Snow 21 -6 19 -7 93 93 Calm 29.86 1011 7 11 0.00 0.00
2:33 am 02:33 Cloudy with Light Snow 21 -6 19 -7 93 93 Calm 29.86 1011 3 5 0.00 0.00
2:58 am 02:58 Cloudy with Light Snow 21 -6.1 20 -6.7 96 96 Calm 29.85 1011 1 2 0.00 0.00
3:28 am 03:28 Mostly Cloudy with Light Snow 21 -6 19 -7 93 93 Calm 29.84 1010 7 11 0.00 0.00
3:33 am 03:33 Mostly Cloudy with Light Snow 21 -6 19 -7 93 93 Calm 29.84 1010 1 1 0.00 0.00
3:43 am 03:43 Mostly Cloudy with Light Snow 21 -6 19 -7 93 93 Calm 29.84 1010 5 8 0.00 0.00
4:58 am 04:58 Mostly Cloudy with Light Freezing Rain 20 -6.4 20 -6.9 96 96 Calm 29.83 1010 3 5 0.00 0.00
4:59 am 04:59 Mostly Cloudy 21 -6 19 -7 93 93 Calm 29.83 1010 1 1 0.00 0.00
5:11 am 05:11 Mostly Cloudy with Light Snow 21 -6 19 -7 93 93 Calm 29.82 1010 7 11 0.00 0.00
5:15 am 05:15 Mostly Cloudy 21 -6 19 -7 93 93 Calm 29.83 1010 5 8 0.00 0.00
5:19 am 05:19 Mostly Cloudy with Light Freezing Rain 21 -6 19 -7 93 93 Calm 29.83 1010 5 8 0.00 0.00
5:58 am 05:58 undefined N/A N/A N/A Calm N/A N/A 0.00 0.00
5:59 am 05:59 Mostly Cloudy with Snow N/A N/A N/A Calm N/A 3 5 0.00 0.00
6:34 am 06:34 Mostly Cloudy with Snow 19 -7 18 -8 93 93 Calm 29.84 1011 5 8 0.00 0.00
6:39 am 06:39 Mostly Cloudy with Light Snow 19 -7 18 -8 93 93 Calm 29.85 1011 7 11 0.00 0.00
6:58 am 06:58 Cloudy with Snow 19 -7.3 18 -8 95 95 Calm 29.85 1011 5 8 0.00 0.00
7:43 am 07:43 Mostly Cloudy with Light Snow 19 -7 18 -8 93 93 Calm 29.86 1011 5 8 0.00 0.00
7:48 am 07:48 Mostly Cloudy 19 -7 18 -8 93 93 Calm 29.85 1011 2 3 0.00 0.00
7:49 am 07:49 Mostly Cloudy with Light Snow 19 -7 18 -8 93 93 Calm 29.85 1011 2 3 0.00 0.00
7:54 am 07:54 Mostly Cloudy with Light Snow 19 -7 18 -8 93 93 Calm 29.85 1011 2 4 0.00 0.00
7:58 am 07:58 Mostly Cloudy with Light Snow 19 -7.3 18 -7.9 96 96 Calm 29.85 1011 3 4 0.00 0.00
8:03 am 08:03 Mostly Cloudy with Light Snow 19 -7 18 -8 93 93 Calm 29.86 1011 4 6 0.00 0.00
8:33 am 08:33 Mostly Cloudy with Light Snow 19 -7 19 -7 100 100 Calm 29.86 1011 3 5 0.00 0.00
8:39 am 08:39 Mostly Cloudy with Freezing Fog 19 -7 19 -7 100 100 Calm 29.86 1011 0 0 0.00 0.00
8:47 am 08:47 Mostly Cloudy with Light Snow Showers 19 -7 19 -7 100 100 Calm 29.88 1012 0 0 0.00 0.00
8:58 am 08:58 Mostly Cloudy with Light Snow Showers 19 -7 18 -7.6 96 96 Calm 29.86 1011 1 2 0.00 0.00
9:13 am 09:13 Cloudy with Light Snow Showers 19 -7 19 -7 100 100 Calm 29.88 1012 1 2 0.00 0.00
9:28 am 09:28 Mostly Cloudy with Light Snow 19 -7 19 -7 100 100 Calm 29.88 1012 3 5 0.00 0.00
9:58 am 09:58 Mostly Cloudy with Light Snow 20 -6.4 20 -6.9 96 96 Calm 29.86 1011 1 1 0.01 0.25
10:28 am 10:28 Mostly Cloudy with Snow 21 -6 21 -6 100 100 Calm 29.86 1011 7 11 0.00 0.00
10:43 am 10:43 Cloudy with Light Snow 23 -5 21 -6 93 93 Calm 29.85 1011 7 11 0.00 0.00
10:58 am 10:58 Mostly Cloudy with Light Snow 22 -5.5 21 -6 96 96 Calm 29.84 1010 1 1 0.02 0.51
11:13 am 11:13 Mostly Cloudy with Light Snow 21 -6 21 -6 100 100 Calm 29.84 1010 1 2 0.00 0.00
11:58 am 11:58 Mostly Cloudy with Light Snow 23 -4.9 22 -5.3 97 97 Calm 29.82 1010 3 5 0.03 0.76
12:46 pm 12:46 Mostly Cloudy with Freezing Fog 23 -5 23 -5 100 100 Calm 29.80 1009 N/A 0.00 0.00
12:51 pm 12:51 Mostly Cloudy with Light Snow Showers 23 -5 21 -6 93 93 Calm 29.78 1009 N/A 0.00 0.00
12:58 pm 12:58 Mostly Cloudy with Light Snow Showers 23 -5 22 -5.4 97 97 Calm 29.78 1009 N/A 0.02 0.51
1:56 pm 13:56 Mostly Cloudy with Freezing Fog 23 -5 23 -5 100 100 Calm 29.78 1008 1 2 0.00 0.00
2:58 pm 14:58 Mostly Cloudy with Freezing Fog 25 -3.8 26 -3.1 100 100 Calm 29.76 1008 0 0 0.02 0.51
3:33 pm 15:33 Mostly Cloudy with Freezing Fog 25 -4 25 -4 100 100 Calm 29.78 1008 8 13 0.00 0.00
3:43 pm 15:43 Mostly Cloudy 25 -4 25 -4 100 100 Calm 29.78 1008 10 16 0.00 0.00
3:58 pm 15:58 Mostly Cloudy with Mist and Fog 25 -3.7 25 -3.9 99 99 Calm 29.78 1008 4 6 0.02 0.51
4:13 pm 16:13 Mostly Cloudy with Freezing Fog 27 -3 25 -4 93 93 Calm 29.78 1008 1 1 0.00 0.00
4:18 pm 16:18 Mostly Cloudy with Freezing Fog 25 -4 25 -4 100 100 Calm 29.78 1009 1 1 0.00 0.00
4:43 pm 16:43 Mostly Cloudy with Freezing Fog 25 -4 25 -4 100 100 Calm 29.78 1009 10 16 0.00 0.00
5:28 pm 17:28 Mostly Cloudy with Freezing Fog 28 -2 27 -3 93 93 Calm 29.77 1008 0 0 0.00 0.00
5:43 pm 17:43 Mostly Cloudy 28 -2 28 -2 100 100 Calm 30.01 1016 10 16 0.00 0.00
5:58 pm 17:58 Mostly Cloudy 29 -1.4 29 -1.5 99 99 Calm 29.77 1008 10 16 0.00 0.00
6:58 pm 18:58 Mostly Cloudy 29 -1.4 29 -1.5 99 99 Calm 29.78 1008 10 16 0.01 0.25
7:58 pm 19:58 Clear 29 -1.7 29 -1.8 99 99 Calm 29.80 1009 10 16 0.00 0.00
8:58 pm 20:58 Clear 29 -1.7 28 -2.1 97 97 Calm 29.81 1009 10 16 0.00 0.00
9:58 pm 21:58 Clear 33 0.4 22 -5.3 66 66 Calm 29.80 1009 10 16 0.00 0.00
10:23 pm 22:23 Clear with Light Showers 37 3 16 -9 41 41 Calm 29.77 1008 10 16 0.00 0.00
10:27 pm 22:27 Clear with Light Showers 37 3 14 -10 38 38 Calm 29.77 1008 10 16 0.00 0.00
10:38 pm 22:38 Clear 34 1 16 -9 48 48 Calm 29.78 1009 10 16 0.00 0.00
10:58 pm 22:58 Clear 38 3.4 11 -11.5 33 33 Calm 29.78 1008 10 16 0.00 0.00
10:59 pm 22:59 Clear with Light Showers 37 3 12 -11 35 35 Calm 29.77 1008 10 16 0.00 0.00
11:12 pm 23:12 Clear 37 3 12 -11 35 35 Calm 29.78 1008 10 16 0.00 0.00
11:58 pm 23:58 Clear 37 2.6 14 -9.8 40 40 Calm 29.79 1009 10 16 0.01 0.25

Powered by AerisWeather